Cherokee, IA

4:48 PM CDT on July 28, 2016 (GMT -0500)
Cherokee Municipal

Weather History for KCKP - July, 2013

Change the Weather History Date:

Friday, July 26, 2013

  Actual Average Record
Temperature  
Mean Temperature 67 °F -  
Max Temperature 75 °F 84 °F 100 °F (1956)
Min Temperature 58 °F 61 °F 43 °F (1962)
Cooling Degree Days 2    
Growing Degree Days 17 (Base 50)    
Moisture  
Dew Point 57 °F    
Average Humidity 71    
Maximum Humidity 97    
Minimum Humidity 43    
Precipitation  
Precipitation 0.00 in - - ()
Sea Level Pressure  
Sea Level Pressure 30.07 in    
Wind  
Wind Speed 6 mph (NNW)    
Max Wind Speed 17 mph    
Max Gust Speed 26 mph    
Visibility 9 miles    
Events      
Averages and records for this station are not official NWS values.
T = Trace of Precipitation, MM = Missing Value Source: NWS Daily Summary

Daily Weather History Graph

Daily Weather History Graph

Search for Another Location

Airport or City:

Trip Planner

Search our weather history database for the weather conditions in past years. The results will help you decide how hot, cold, wet, or windy it might be!

Date:

Astronomy

Jul. 26, 2013 Rise Set
Actual Time 6:07 AM CDT 8:48 PM CDT
Civil Twilight 5:35 AM CDT 9:21 PM CDT
Nautical Twilight 4:54 AM CDT 10:02 PM CDT
Astronomical Twilight 4:07 AM CDT 10:49 PM CDT
Moon 10:54 PM CDT (7/26) 10:53 AM CDT (7/26)
Length of Visible Light 15h 46m
Length of Day
14h 40m
Waning Gibbous, 80% of the Moon is Illuminated
Jul 26
Waning Gibbous
Jul 29
Last Quarter
Aug 6
New
Aug 14
First Quarter
Aug 20
Full

Hourly Weather History & Observations

Time (CDT) Temp. Dew Point Humidity Pressure Visibility Wind Dir Wind Speed Gust Speed Precip Events Conditions
12:15 AM 70.2 °F 68.0 °F 93% 30.00 in 10.0 mi WSW 3.5 mph - N/A   Mostly Cloudy
12:35 AM 69.8 °F 67.6 °F 93% 29.99 in 10.0 mi SW 3.5 mph - N/A   Scattered Clouds
12:55 AM 69.4 °F 67.6 °F 94% 29.99 in 10.0 mi SW 3.5 mph - N/A   Clear
1:15 AM 68.9 °F 67.3 °F 95% 29.99 in 10.0 mi Calm Calm - N/A   Clear
1:35 AM 68.4 °F 66.7 °F 95% 29.98 in 10.0 mi SSW 3.5 mph - N/A   Clear
1:55 AM 68.0 °F 66.6 °F 95% 29.98 in 7.0 mi Calm Calm - N/A   Clear
2:15 AM 67.6 °F 66.2 °F 95% 29.98 in 7.0 mi Calm Calm - N/A   Clear
2:35 AM 67.1 °F 65.8 °F 96% 29.98 in 7.0 mi SSW 3.5 mph - N/A   Clear
2:55 AM 67.1 °F 65.8 °F 96% 29.98 in 7.0 mi Calm Calm - N/A   Clear
3:15 AM 67.6 °F 66.4 °F 96% 29.98 in 7.0 mi Calm Calm - N/A   Clear
3:35 AM 67.5 °F 66.2 °F 96% 29.97 in 7.0 mi Calm Calm - N/A   Clear
3:55 AM 67.3 °F 66.2 °F 96% 29.98 in 5.0 mi Calm Calm - N/A   Clear
4:15 AM 66.7 °F 65.8 °F 97% 29.98 in 5.0 mi Calm Calm - N/A   Clear
4:35 AM 66.9 °F 66.0 °F 97% 29.98 in 7.0 mi North 3.5 mph - N/A   Clear
4:55 AM 67.1 °F 66.2 °F 97% 29.99 in 7.0 mi North 5.8 mph - N/A   Clear
5:15 AM 66.4 °F 65.3 °F 96% 29.99 in 7.0 mi North 6.9 mph - N/A   Clear
5:35 AM 65.8 °F 64.6 °F 96% 30.00 in 7.0 mi North 5.8 mph - N/A   Clear
5:55 AM 65.3 °F 63.3 °F 93% 30.00 in 10.0 mi North 6.9 mph - N/A   Clear
6:15 AM 64.6 °F 61.9 °F 91% 30.02 in 10.0 mi North 6.9 mph - N/A   Clear
6:35 AM 64.0 °F 61.7 °F 92% 30.03 in 10.0 mi North 9.2 mph - N/A   Clear
6:55 AM 64.0 °F 61.0 °F 90% 30.04 in 10.0 mi North 10.4 mph - N/A   Clear
7:15 AM 63.9 °F 59.5 °F 86% 30.04 in 10.0 mi North 11.5 mph - N/A   Clear
7:35 AM 64.0 °F 59.4 °F 85% 30.05 in 10.0 mi NNW 9.2 mph - N/A   Clear
7:55 AM 64.4 °F 59.2 °F 83% 30.06 in 10.0 mi NNW 11.5 mph - N/A   Clear
8:15 AM 64.6 °F 58.5 °F 80% 30.06 in 10.0 mi NNW 8.1 mph - N/A   Scattered Clouds
8:35 AM 65.3 °F 57.9 °F 77% 30.08 in 10.0 mi NNW 10.4 mph 17.3 mph N/A   Scattered Clouds
8:55 AM 66.2 °F 57.6 °F 74% 30.08 in 10.0 mi North 15.0 mph 18.4 mph N/A   Clear
9:15 AM 67.1 °F 57.6 °F 71% 30.09 in 10.0 mi NNW 11.5 mph 16.1 mph N/A   Clear
9:35 AM 68.0 °F 58.1 °F 71% 30.08 in 10.0 mi NNW 13.8 mph 18.4 mph N/A   Clear
9:55 AM 69.1 °F 57.6 °F 67% 30.09 in 10.0 mi NNW 9.2 mph - N/A   Clear
10:15 AM 69.4 °F 56.7 °F 64% 30.10 in 10.0 mi NNW 10.4 mph 18.4 mph N/A   Scattered Clouds
10:35 AM 70.0 °F 56.3 °F 62% 30.10 in 10.0 mi NNW 17.3 mph 23.0 mph N/A   Scattered Clouds
10:55 AM 70.3 °F 55.8 °F 60% 30.11 in 10.0 mi NW 11.5 mph 24.2 mph N/A   Scattered Clouds
11:15 AM 69.6 °F 55.4 °F 61% 30.11 in 10.0 mi NNW 17.3 mph 23.0 mph N/A   Mostly Cloudy
11:35 AM 69.4 °F 54.5 °F 59% 30.12 in 10.0 mi NNW 13.8 mph 23.0 mph N/A   Mostly Cloudy
11:55 AM 70.3 °F 53.6 °F 55% 30.12 in 10.0 mi NNW 16.1 mph 24.2 mph N/A   Mostly Cloudy
12:15 PM 69.8 °F 53.8 °F 57% 30.12 in 10.0 mi NNW 17.3 mph 21.9 mph N/A   Overcast
12:35 PM 68.9 °F 53.6 °F 58% 30.13 in 10.0 mi NW 11.5 mph 20.7 mph N/A   Overcast
12:55 PM 68.9 °F 52.9 °F 57% 30.12 in 10.0 mi NNW 17.3 mph 21.9 mph N/A   Overcast
1:15 PM 68.7 °F 52.7 °F 57% 30.12 in 10.0 mi NNW 11.5 mph 21.9 mph N/A   Overcast
1:35 PM 70.3 °F 53.1 °F 54% 30.12 in 10.0 mi NW 12.7 mph 20.7 mph N/A   Overcast
1:55 PM 70.5 °F 53.4 °F 55% 30.12 in 10.0 mi NNW 11.5 mph 18.4 mph N/A   Overcast
2:15 PM 70.3 °F 54.7 °F 58% 30.12 in 10.0 mi NW 8.1 mph 20.7 mph N/A   Overcast
2:35 PM 70.9 °F 52.7 °F 53% 30.12 in 10.0 mi NW 10.4 mph 20.7 mph N/A   Overcast
2:55 PM 70.5 °F 52.9 °F 54% 30.12 in 10.0 mi NNW 10.4 mph - N/A   Overcast
3:15 PM 70.9 °F 52.9 °F 53% 30.11 in 10.0 mi North 12.7 mph 19.6 mph N/A   Overcast
3:35 PM 72.0 °F 53.4 °F 52% 30.11 in 10.0 mi NNW 10.4 mph 16.1 mph N/A   Overcast
3:55 PM 71.6 °F 53.2 °F 52% 30.11 in 10.0 mi NNW 11.5 mph 17.3 mph N/A   Mostly Cloudy
4:15 PM 74.5 °F 51.6 °F 45% 30.11 in 10.0 mi NNW 15.0 mph 23.0 mph N/A   Overcast
4:35 PM 75.0 °F 51.1 °F 43% 30.10 in 10.0 mi NNW 17.3 mph 21.9 mph N/A   Overcast
4:55 PM 72.3 °F 51.1 °F 47% 30.10 in 10.0 mi North 12.7 mph - N/A   Mostly Cloudy
5:15 PM 74.3 °F 50.7 °F 43% 30.10 in 10.0 mi NNW 13.8 mph 24.2 mph N/A   Mostly Cloudy
5:35 PM 71.8 °F 49.3 °F 45% 30.10 in 10.0 mi North 15.0 mph 26.5 mph N/A   Scattered Clouds
5:55 PM 72.0 °F 49.3 °F 45% 30.11 in 10.0 mi North 11.5 mph 20.7 mph N/A   Overcast
6:15 PM 71.8 °F 49.5 °F 45% 30.10 in 10.0 mi North 12.7 mph 17.3 mph N/A   Mostly Cloudy
6:35 PM 72.0 °F 49.1 °F 44% 30.10 in 10.0 mi North 12.7 mph 18.4 mph N/A   Mostly Cloudy
6:55 PM 70.5 °F 49.6 °F 47% 30.10 in 10.0 mi North 10.4 mph - N/A   Scattered Clouds
7:15 PM 70.9 °F 48.6 °F 45% 30.10 in 10.0 mi North 10.4 mph 17.3 mph N/A   Mostly Cloudy
7:35 PM 70.5 °F 50.0 °F 48% 30.10 in 10.0 mi North 9.2 mph - N/A   Mostly Cloudy
7:55 PM 70.0 °F 49.3 °F 48% 30.10 in 10.0 mi North 9.2 mph - N/A   Scattered Clouds
8:15 PM 68.5 °F 50.0 °F 52% 30.11 in 10.0 mi North 4.6 mph - N/A   Scattered Clouds
8:35 PM 67.1 °F 50.2 °F 55% 30.11 in 10.0 mi North 5.8 mph - N/A   Scattered Clouds
8:55 PM 64.9 °F 51.1 °F 61% 30.11 in 10.0 mi NNE 4.6 mph - N/A   Scattered Clouds
9:15 PM 63.7 °F 52.3 °F 67% 30.11 in 10.0 mi Calm Calm - N/A   Scattered Clouds
9:35 PM 63.7 °F 52.9 °F 68% 30.12 in 10.0 mi Calm Calm - N/A   Mostly Cloudy
9:55 PM 62.6 °F 54.5 °F 75% 30.12 in 10.0 mi Calm Calm - N/A   Mostly Cloudy
10:15 PM 61.2 °F 53.8 °F 77% 30.12 in 10.0 mi Calm Calm - N/A   Scattered Clouds
10:35 PM 61.0 °F 53.6 °F 77% 30.12 in 10.0 mi Calm Calm - N/A   Clear
10:55 PM 59.9 °F 53.6 °F 80% 30.12 in 10.0 mi Calm Calm - N/A   Clear
11:15 PM 59.2 °F 53.4 °F 81% 30.12 in 10.0 mi North 3.5 mph - N/A   Clear
11:35 PM 59.4 °F 53.6 °F 81% 30.12 in 10.0 mi Calm Calm - N/A   Clear
11:55 PM 58.5 °F 53.6 °F 84% 30.12 in 10.0 mi Calm Calm - N/A   Clear